Location: Oshawa
(43.9000°N, 78.8670°W)
Time: 13:02:35
(UTC-05:00)

Daily predictions for brighter satellites

Satellite Brightness Start Highest point End
(mag) Time Altitude Azimuth Time Altitude Azimuth Time Altitude Azimuth
Cosmos 614 Rocket 4.3 18:23:06 10° S 18:27:53 43° ESE 18:32:41 10° NNE
FENGYUN 3A 4.3 18:26:53 10° SE 18:31:42 34° ENE 18:36:32 10° N
Cosmos 1818 4.3 18:27:44 10° SW 18:33:05 58° NW 18:38:30 10° NNE
Cosmos 2322 Rocket 4.3 18:29:50 10° NW 18:34:46 33° WSW 18:39:42 10° SSW
Meteor 1-28 Rocket 3.2 18:31:19 10° NNE 18:35:09 83° ESE 18:38:58 10° S
Cosmos 1570 Rocket 4.2 18:30:06 10° NNW 18:35:14 52° ENE 18:40:20 10° SE
Cosmos 2181 Rocket 4.0 18:29:14 10° N 18:35:29 66° E 18:41:47 10° SSE
USA 229 DEB 4.0 18:31:24 10° NNW 18:38:22 53° NE 18:45:25 10° ESE
USA 229 4.0 18:31:30 10° NNW 18:38:27 53° NE 18:45:31 10° ESE
Genesis I 3.2 18:35:14 10° NNW 18:39:12 82° ENE 18:43:07 10° SE
Cosmos 1633 2.5 18:35:43 10° S 18:39:23 72° E 18:43:03 10° NNE
Cosmos 1238 Rocket 2.0 18:36:50 10° N 18:39:46 65° E 18:42:47 10° SSE
Okean 1 Rocket 3.3 18:38:00 10° SSE 18:42:19 49° E 18:46:40 10° NNE
Cosmos 1709 Rocket 4.0 18:38:19 10° S 18:44:31 85° E 18:50:41 10° N
ASTRO F (AKARI) 4.4 18:42:12 10° NNE 18:45:43 82° ESE 18:49:02 10° SSW
Cosmos 2074 Rocket 4.4 18:40:24 10° SSE 18:46:06 39° E 18:51:52 10° NNE
METEOR-M 4.1 18:41:03 10° SSE 18:46:22 80° ENE 18:51:44 10° NNW
Cosmos 1025 Rocket 3.6 18:43:22 10° N 18:47:25 36° ENE 18:51:29 10° SE
Spot 2 Rocket 4.0 18:46:53 10° SE 18:51:30 37° ENE 18:56:09 10° N
Cosmos 2184 Rocket 4.3 18:46:37 10° SSE 18:52:27 42° E 18:58:16 10° NNE
USA 215 4.2 18:47:56 10° NE 18:53:58 42° NNW 19:00:00 10° W
FengYun 1-2 T 4.3 18:51:17 10° SE 18:56:35 54° ENE 19:01:57 10° N
Cosmos 2322 4.2 18:50:57 10° NNW 18:56:37 64° WSW 19:02:14 10° S
USA 186 3.9 19:00:27 10° NE 19:00:27 10° NE 19:00:27 10° NE
BREEZE-M DEB (TANK) 3.2 19:00:30 10° SW 19:04:13 32° SSE 19:05:20 22° ESE
Cosmos 2208 Rocket 4.1 19:00:49 10° NNW 19:06:18 88° ENE 19:11:42 10° SSE
Cosmos 1850 Rocket 4.0 19:01:30 10° SSW 19:06:48 82° ESE 19:12:11 10° NNE
Envisat 4.3 19:06:50 17° E 19:08:14 19° ENE 19:11:47 10° NNE
NOSS 3-1 (C) 4.4 19:01:46 10° NNW 19:08:46 44° NE 19:14:48 17° ESE
SJ-6B 3.0 19:05:51 10° S 19:09:48 76° WSW 19:13:43 10° NNW
NOSS 0 Rocket 4.2 19:03:54 10° NNW 19:09:49 46° ENE 19:15:08 13° SE
Cosmos 1544 Rocket 4.5 19:06:23 10° SE 19:09:55 25° E 19:13:27 10° NE
Cosmos 405 Rocket 3.5 19:06:33 10° N 19:10:16 33° ENE 19:13:11 14° SE
Cosmos 2237 Rocket 2.9 19:06:02 10° N 19:11:12 34° NE 19:14:36 19° ESE
ALOS 2.2 19:08:48 10° SSE 19:13:27 78° ENE 19:18:09 10° N
Cosmos 2333 4.2 19:07:52 10° NNW 19:13:38 83° ENE 19:19:24 10° SSE
HJ-1C 3.3 19:11:17 10° SSE 19:14:38 79° ENE 19:18:01 10° N
Cosmos 2297 Rocket 3.5 19:11:09 10° SE 19:14:23 19° ESE 19:14:23 19° ESE
COSMOS 2428 2.8 19:09:45 10° NNW 19:15:29 84° WSW 19:21:10 10° SSE
H-2A R/B 2.8 19:12:54 10° SSE 19:16:31 52° ENE 19:20:12 10° N
CZ-2D R/B 3.7 19:14:14 13° SE 19:17:15 39° ENE 19:20:51 10° N
Okean 1-7 Rocket 3.7 19:13:43 10° N 19:18:15 81° W 19:22:43 10° S
Meteor 2-4 Rocket 3.8 19:15:24 10° NNW 19:20:56 76° W 19:26:18 10° S
Cosmos 2154 Rocket 4.4 19:16:12 10° SSE 19:21:57 38° E 19:27:43 10° NNE
Cosmos 2285 Rocket 4.0 19:15:50 10° NNW 19:22:19 76° ENE 19:28:42 10° SSE
Gbstr 26 Del rocket 3.1 19:19:39 10° WSW 19:23:23 55° NNW 19:25:40 21° NE
Cosmos 2360 Rocket 4.0 19:18:32 10° NW 19:23:34 34° WSW 19:28:36 10° SSW
Cosmos 2219 Rocket 2.1 19:18:04 10° NNW 19:23:40 65° ENE 19:28:57 11° SE
Meteor 1-23 Rocket 4.3 19:20:51 10° NNW 19:26:41 84° W 19:32:25 10° S
Okean 2 3.3 19:23:44 10° N 19:27:54 67° E 19:32:03 10° SSE
Cosmos 2219 3.4 19:27:23 10° SSW 19:33:08 77° WNW 19:38:54 10° NNE
Atlas Centaur 2 4.4 19:31:53 10° S 19:34:14 12° SSE 19:35:47 11° SSE
Helios 1B rocket 2.8 19:30:45 10° NNE 19:34:40 39° E 19:38:33 10° SSE
Cosmos 2227 Rocket 2.7 19:30:01 10° S 19:35:08 36° ESE 19:38:28 19° NE
Helios 1A 3.1 19:33:28 27° SE 19:35:28 52° ENE 19:39:31 10° N
Abrixas rocket 2.2 19:33:07 10° WSW 19:36:30 84° NNW 19:37:11 53° ENE
Cosmos 1441 Rocket 4.3 19:35:42 10° N 19:38:21 28° NE 19:38:21 28° NE
Cosmos 1536 4.1 19:36:41 10° SSW 19:40:28 42° WNW 19:44:17 10° N
SAR-Lupe-1 3.9 19:44:48 58° SE 19:45:18 69° ENE 19:48:53 10° N
Cosmos 841 Rocket 4.0 19:41:16 10° N 19:46:02 37° ENE 19:46:24 36° ENE
SAR-Lupe-4 3.4 19:44:54 38° SSE 19:46:10 84° ENE 19:49:46 10° NNW
SL-16 R/B 3.1 19:42:01 10° N 19:46:58 29° NE 19:47:23 29° ENE
Cosmos 1455 Rocket 3.1 19:43:01 10° S 19:47:15 50° E 19:51:29 10° NNE
Cosmos 1437 3.6 19:50:29 10° N 19:52:45 40° N 19:52:45 40° N
Cosmos 1763 Rocket 3.5 19:51:43 10° NNW 19:56:47 55° ENE 19:57:29 50° E
Resurs 01 Rocket 2.7 19:56:02 10° S 20:00:14 44° W 20:04:29 10° NNW
Cosmos 2333 Rocket 2.4 20:03:53 10° NNW 20:09:37 69° WSW 20:12:59 25° S
Cosmos 1980 3.6 20:04:58 10° NNW 20:10:39 83° WSW 20:12:50 40° SSE
GEOS 3 Rocket 3.5 20:08:20 29° NE 20:11:10 88° WNW 20:16:28 10° SW
GPS 2-04 Rocket1 4.4 20:11:14 10° WSW 20:14:12 25° SSW 20:14:12 25° SSW
Cosmos 1295 Rocket 4.3 20:33:35 62° SSE 20:34:43 81° E 20:41:03 10° N
Cosmos 2082 3.7 20:31:35 10° SSW 20:37:19 83° WNW 20:37:59 70° N
NOSS 3-1 (A) 4.0 20:34:39 10° NW 20:42:17 86° SW 20:44:07 59° SSE
ERS-1 Rocket 4.0 20:45:10 39° N 20:45:10 39° N 20:48:17 10° NNW
Cosmos 332 Rocket 4.5 20:40:12 10° NNW 20:44:08 52° WNW 20:44:08 52° WNW
Envisat 3.4 20:47:01 59° W 20:47:01 59° W 20:51:51 10° NNW
ATLAS 2AS CENTAUR R/B 3.6 20:40:23 10° NNW 20:48:02 42° NE 20:48:06 42° NE
Cosmos 371 Rocket 4.5 20:49:58 10° NNW 20:53:07 39° NW 20:53:07 39° NW
Cosmos 2237 Rocket 3.3 20:50:03 10° NW 20:55:19 40° WSW 20:56:29 36° SW
Cosmos 2297 Rocket 3.1 20:52:50 10° SW 20:56:25 39° SW 20:56:25 39° SW
NOSS 3-1 (C) 4.5 20:52:35 10° NW 21:00:01 57° WSW 21:02:16 44° SSW
Cosmos 2227 Rocket 3.5 21:13:59 10° WSW 21:19:10 36° NW 21:20:36 31° NNW
SL-16 R/B 3.7 21:25:52 10° NW 21:29:17 33° WNW 21:29:17 33° WNW
ATLAS 2AS CENTAUR R/B 4.4 22:31:34 10° NW 22:35:33 31° NW 22:35:33 31° NW
